Iron Mountain, MI

2:09 PM CDT on September 22, 2017 (GMT -0500)
Ford

Weather History for KIMT - June, 2014

Change the Weather History Date:

Saturday, June 14, 2014

  Actual Average Record
Temperature  
Mean Temperature 52 °F -  
Max Temperature 70 °F 77 °F 94 °F (1988)
Min Temperature 37 °F 51 °F 30 °F (1958)
Degree Days  
Heating Degree Days 12    
Growing Degree Days 2 (Base 50)    
Moisture  
Dew Point 40 °F    
Average Humidity 78    
Maximum Humidity 100    
Minimum Humidity 42    
Precipitation  
Precipitation 0.00 in - - ()
Sea Level Pressure  
Sea Level Pressure 30.09 in    
Wind  
Wind Speed 2 mph (SE)    
Max Wind Speed 13 mph    
Max Gust Speed 23 mph    
Visibility 6 miles    
Events Fog    
Averages and records for this station are not official NWS values.
T = Trace of Precipitation, MM = Missing Value Source: NWS Daily Summary

Daily Weather History Graph

Daily Weather History Graph

Search for Another Location

Airport or City:

Trip Planner

Search our weather history database for the weather conditions in past years. The results will help you decide how hot, cold, wet, or windy it might be!

Date:

Astronomy

Jun. 14, 2014 Rise Set
Actual Time 5:01 AM CDT 8:43 PM CDT
Civil Twilight 4:23 AM CDT 9:22 PM CDT
Nautical Twilight 3:32 AM CDT 10:13 PM CDT
Astronomical Twilight 2:22 AM CDT 11:24 PM CDT
Moon 10:00 PM CDT (6/14) 6:51 AM CDT (6/14)
Length of Visible Light 16h 58m
Length of Day
15h 42m
Waning Gibbous, 97% of the Moon is Illuminated
Jun 14
Waning Gibbous
Jun 19
Last Quarter
Jun 27
New
Jul 5
First Quarter
Jul 12
Full

Hourly Weather History & Observations

Time (CDT) Temp. Dew Point Humidity Pressure Visibility Wind Dir Wind Speed Gust Speed Precip Events Conditions
12:54 AM 45.0 °F 41.0 °F 86% 30.08 in 10.0 mi Calm Calm - N/A   Clear
1:54 AM 39.9 °F 37.0 °F 89% 30.08 in 10.0 mi Calm Calm - N/A   Clear
2:54 AM 39.9 °F 37.9 °F 93% 30.10 in 8.0 mi Calm Calm - N/A   Clear
3:01 AM 39.0 °F 37.9 °F 96% 30.09 in 1.8 mi Calm Calm - N/A   Clear
3:04 AM 39.9 °F 37.9 °F 93% 30.08 in 1.0 mi Calm Calm - N/A   Mist
3:12 AM 39.9 °F 37.0 °F 89% 30.08 in 2.5 mi Calm Calm - N/A   Scattered Clouds
3:19 AM 39.9 °F 37.9 °F 93% 30.07 in 10.0 mi Calm Calm - N/A   Partly Cloudy
3:48 AM 41.0 °F 39.2 °F 93% 30.07 in 1.5 mi Calm Calm - N/A   Partly Cloudy
3:52 AM 41.0 °F 39.2 °F 93% 30.08 in 0.8 mi Calm Calm - N/A   Mist
3:54 AM 39.9 °F 39.0 °F 97% 30.09 in 0.5 mi Calm Calm - N/A Fog Fog
4:04 AM 39.9 °F 39.0 °F 97% 30.08 in 1.2 mi Calm Calm - N/A   Partly Cloudy
4:20 AM 39.0 °F 37.0 °F 93% 30.09 in 3.0 mi Calm Calm - N/A   Clear
4:52 AM 37.4 °F 35.6 °F 93% 30.10 in 1.2 mi Calm Calm - N/A   Clear
4:54 AM 37.0 °F 36.0 °F 96% 30.12 in 0.5 mi Calm Calm - N/A Fog Fog
5:05 AM 37.0 °F 36.0 °F 96% 30.10 in 1.2 mi Calm Calm - N/A   Partly Cloudy
5:09 AM 37.0 °F 35.1 °F 93% 30.10 in 3.0 mi Calm Calm - N/A   Scattered Clouds
5:16 AM 37.0 °F 34.0 °F 89% 30.10 in 6.0 mi Calm Calm - N/A   Mostly Cloudy
5:19 AM 37.9 °F 35.1 °F 89% 30.11 in 0.8 mi Calm Calm - N/A   Mist
5:31 AM 37.9 °F 37.0 °F 97% 30.11 in 2.5 mi Calm Calm - N/A   Overcast
5:40 AM 37.0 °F 36.0 °F 96% 30.11 in 0.8 mi Calm Calm - N/A   Mist
5:54 AM 37.9 °F 37.9 °F 100% 30.13 in 0.5 mi Calm Calm - N/A Fog Fog
6:04 AM 39.9 °F 39.0 °F 97% 30.11 in 1.2 mi Calm Calm - N/A   Partly Cloudy
6:09 AM 39.9 °F 39.0 °F 97% 30.11 in 3.0 mi Calm Calm - N/A   Partly Cloudy
6:54 AM 46.0 °F 43.0 °F 89% 30.12 in 10.0 mi Calm Calm - N/A   Clear
7:54 AM 53.1 °F 44.1 °F 71% 30.12 in 10.0 mi SSE 8.1 mph - N/A   Clear
8:54 AM 55.9 °F 44.1 °F 64% 30.12 in 10.0 mi SE 9.2 mph - N/A   Clear
9:54 AM 60.1 °F 45.0 °F 57% 30.13 in 10.0 mi SSE 9.2 mph - N/A   Clear
10:54 AM 62.1 °F 45.0 °F 53% 30.12 in 10.0 mi East 6.9 mph - N/A   Clear
11:54 AM 63.0 °F 44.1 °F 50% 30.12 in 10.0 mi SE 8.1 mph - N/A   Overcast
12:54 PM 66.0 °F 46.0 °F 48% 30.10 in 10.0 mi SE 9.2 mph - N/A   Overcast
1:54 PM 68.0 °F 45.0 °F 43% 30.07 in 10.0 mi SSE 11.5 mph 18.4 mph N/A   Clear
2:54 PM 68.0 °F 44.1 °F 42% 30.07 in 10.0 mi SSE 11.5 mph - N/A   Clear
4:54 PM 66.0 °F 45.0 °F 47% 30.05 in 10.0 mi SE 12.7 mph - N/A   Clear
5:54 PM 63.0 °F 42.1 °F 46% 30.05 in 10.0 mi ESE 12.7 mph - N/A   Clear
6:54 PM 60.1 °F 39.9 °F 47% 30.04 in 10.0 mi ESE 10.4 mph 23.0 mph N/A   Clear
7:54 PM 57.9 °F 41.0 °F 53% 30.06 in 10.0 mi East 8.1 mph - N/A   Clear
8:54 PM 57.0 °F 42.1 °F 57% 30.05 in 10.0 mi ESE 6.9 mph - N/A   Mostly Cloudy
9:54 PM 55.9 °F 42.1 °F 60% 30.04 in 10.0 mi SSE 6.9 mph - N/A   Mostly Cloudy
10:54 PM 55.0 °F 42.1 °F 62% 30.03 in 10.0 mi SE 5.8 mph - N/A   Overcast
11:54 PM 55.0 °F 42.1 °F 62% 30.02 in 10.0 mi ESE 5.8 mph - N/A   Overcast